This demonstration page uses our WeatherBlox Daily Observations layout. Learn more.

Hourly Observations for March 6, 2017

Temp ( °F °C ) Dew Point ( °F °C ) Humidity (%) Winds ( mph kmh ) Pressure ( in mb ) Visibility ( mi km ) Precip ( " mm )
12:15 am 00:15 Clear 59 15 49 9.6 70 70 S 24 39 29.41 996 10 16.0934 0 0
12:35 am 00:35 Clear 58 14.5 49 9.6 73 73 S 22 35 29.41 996 10 16.0934 0 0
12:55 am 00:55 Clear 57 14.1 49 9.6 75 75 S 23 37 29.44 997 10 16.0934 0 0
1:15 am 01:15 Clear 57 14 49 9.3 74 74 S 18 30 29.44 997 10 16.0934 0 0
1:35 am 01:35 Clear 57 14.1 49 9.2 73 73 S 17 28 29.44 997 10 16.0934 0 0
1:55 am 01:55 Clear 57 14.1 48 9.1 72 72 S 18 30 29.38 995 10 16.0934 0 0
2:15 am 02:15 Clear 58 14.2 48 9 71 71 S 20 31 29.38 995 10 16.0934 0 0
2:35 am 02:35 Clear 58 14.3 48 9.1 71 71 SSW 24 39 29.38 995 10 16.0934 0 0
2:55 am 02:55 Clear 57 14 49 9.2 73 73 SSW 23 37 29.35 994 10 16.0934 0 0
3:15 am 03:15 Clear 56 13.5 49 9.3 76 76 S 21 33 29.38 995 10 16.0934 0 0
3:35 am 03:35 Clear 56 13.1 49 9.5 79 79 S 21 33 29.38 995 10 16.0934 0 0
3:55 am 03:55 Clear 55 13 49 9.5 79 79 S 23 37 29.38 995 10 16.0934 0 0
4:15 am 04:15 Clear 55 12.6 49 9.3 80 80 S 20 31 29.38 995 10 16.0934 0 0
4:35 am 04:35 Clear 54 12.3 48 9 80 80 S 20 31 29.38 995 10 16.0934 0 0
4:55 am 04:55 Clear 54 12.2 48 8.8 80 80 SSW 21 33 29.38 995 10 16.0934 0 0
5:15 am 05:15 Clear 54 12.2 47 8.6 79 79 S 17 28 29.38 995 10 16.0934 0 0
5:35 am 05:35 Clear 54 12.2 47 8.5 78 78 S 18 30 29.38 995 10 16.0934 0 0
5:55 am 05:55 Clear 54 12 47 8.6 80 80 S 17 28 29.38 995 10 16.0934 0 0
6:15 am 06:15 Clear 53 11.7 47 8.5 81 81 S 18 30 29.38 995 10 16.0934 0 0
6:35 am 06:35 Clear 53 11.5 47 8.3 81 81 SSW 15 24 29.38 995 10 16.0934 0 0
6:55 am 06:55 Clear 52 11 46 8 82 82 SSW 14 22 29.38 995 10 16.0934 0 0
7:15 am 07:15 Sunny 51 10.8 46 7.9 82 82 S 15 24 29.38 995 10 16.0934 0 0
7:35 am 07:35 Sunny 51 10.7 46 7.6 81 81 SSW 12 19 29.38 995 10 16.0934 0 0
7:55 am 07:55 Sunny 52 11.3 45 7.3 77 77 S 13 20 29.38 995 10 16.0934 0 0
8:15 am 08:15 Sunny 54 12.1 45 7.3 73 73 SSW 16 26 29.38 995 10 16.0934 0 0
8:35 am 08:35 Sunny 56 13.1 45 7 67 67 SSW 16 26 29.38 995 10 16.0934 0 0
8:55 am 08:55 Sunny 58 14.2 43 6 58 58 SSW 18 30 29.35 994 10 16.0934 0 0
9:15 am 09:15 Sunny 59 15.1 40 4.3 49 49 SSW 25 41 29.35 994 10 16.0934 0 0
9:35 am 09:35 Sunny 61 16 36 2.4 40 40 SW 22 35 29.35 994 10 16.0934 0 0
9:55 am 09:55 Sunny 63 17 34 1.1 34 34 SSW 17 28 29.35 994 10 16.0934 0 0
10:15 am 10:15 Sunny 65 18.5 29 -1.4 26 26 SW 23 37 29.29 992 7 11.26538 0 0
10:35 am 10:35 Sunny 66 19 28 -2.2 24 24 SW 24 39 29.29 992 10 16.0934 0 0
10:55 am 10:55 Sunny 68 19.9 25 -3.7 20 20 SW 23 37 29.29 992 10 16.0934 0 0
11:15 am 11:15 Partly Cloudy 70 21.3 21 -5.9 16 16 SW 21 33 29.23 990 7 11.26538 0 0
11:35 am 11:35 Cloudy with Haze 72 22.1 16 -8.7 12 12 SW 24 39 29.23 990 5 8.0467 0 0
11:55 am 11:55 Cloudy 72 22.2 15 -9.4 11 11 SW 29 46 29.23 990 7 11.26538 0 0
12:15 pm 12:15 Cloudy 73 22.6 14 -10 10 10 WSW 26 43 29.21 989 7 11.26538 0 0
12:35 pm 12:35 Cloudy 73 22.5 12 -10.9 10 10 WSW 23 37 29.21 989 10 16.0934 0 0
12:55 pm 12:55 Partly Cloudy 73 22.7 15 -9.7 11 11 W 26 43 29.21 989 10 16.0934 0 0
1:15 pm 13:15 Partly Cloudy 70 21 23 -5.2 17 17 WNW 30 48 29.23 990 7 11.26538 0 0
1:35 pm 13:35 Sunny 65 18.5 26 -3.4 22 22 WNW 31 50 29.29 992 10 16.0934 0 0
1:55 pm 13:55 Sunny 64 18 26 -3.6 23 23 WNW 26 43 29.29 992 10 16.0934 0 0
2:15 pm 14:15 Sunny 63 17.2 21 -6.2 20 20 WNW 28 44 29.35 994 10 16.0934 0 0
2:35 pm 14:35 Sunny 63 17 14 -9.9 15 15 WNW 35 56 29.35 994 10 16.0934 0 0
2:55 pm 14:55 Sunny 60 15.8 12 -11.2 15 15 WNW 32 52 29.38 995 10 16.0934 0 0
3:15 pm 15:15 Partly Cloudy 59 15 11 -11.9 15 15 WNW 33 54 29.38 995 7 11.26538 0 0
3:35 pm 15:35 Partly Cloudy 58 14.4 9 -13 14 14 WNW 33 54 29.41 996 7 11.26538 0 0
3:55 pm 15:55 Sunny 56 13.5 5 -15 12 12 WNW 37 59 29.47 998 7 11.26538 0 0
4:15 pm 16:15 Hazy 53 11.9 7 -13.9 15 15 WNW 33 54 29.47 998 5 8.0467 0 0
4:35 pm 16:35 Mostly Cloudy 53 11.6 6 -14.2 15 15 W 31 50 29.47 998 7 11.26538 0 0
4:55 pm 16:55 Cloudy with Haze 52 11 3 -16.3 13 13 WNW 32 52 29.53 1000 4 6.43736 0 0
5:15 pm 17:15 Cloudy 51 10.4 1 -17.5 12 12 W 33 54 29.56 1001 7 11.26538 0 0
5:35 pm 17:35 Cloudy 50 10 2 -16.9 13 13 WNW 28 44 29.56 1001 10 16.0934 0 0
5:55 pm 17:55 Mostly Cloudy 48 9.1 11 -11.4 22 22 WNW 25 41 29.59 1002 7 11.26538 0 0
6:15 pm 18:15 Partly Cloudy 46 7.5 14 -10.1 28 28 WNW 36 57 29.65 1004 10 16.0934 0 0
6:35 pm 18:35 Clear 43 6.1 17 -8.2 35 35 WNW 32 52 29.68 1005 10 16.0934 0 0
6:55 pm 18:55 Partly Cloudy 42 5.7 15 -9.6 33 33 WNW 30 48 29.71 1006 10 16.0934 0 0
7:15 pm 19:15 Clear 41 4.8 18 -7.6 41 41 WNW 29 46 29.74 1007 10 16.0934 0 0
7:35 pm 19:35 Clear 40 4.3 19 -7 44 44 WNW 26 43 29.77 1008 10 16.0934 0 0
7:55 pm 19:55 Partly Cloudy 39 4 21 -5.9 49 49 NW 37 59 29.8 1009 10 16.0934 0 0
8:15 pm 20:15 Partly Cloudy 36 2 26 -3.4 68 68 WNW 17 28 29.85 1011 10 16.0934 0 0
8:35 pm 20:35 Partly Cloudy 35 1.8 25 -3.9 66 66 W 21 33 29.85 1011 10 16.0934 0 0
8:55 pm 20:55 Partly Cloudy 36 2.1 26 -3.4 67 67 WNW 22 35 29.85 1011 10 16.0934 0 0
9:15 pm 21:15 Clear 35 1.6 26 -3.5 69 69 WNW 13 20 29.88 1012 10 16.0934 0 0
9:35 pm 21:35 Clear 34 0.9 25 -3.9 71 71 W 10 17 29.91 1013 10 16.0934 0 0
9:55 pm 21:55 Clear 33 0.4 24 -4.4 71 71 W 10 17 29.91 1013 10 16.0934 0 0
10:15 pm 22:15 Clear 33 0.3 24 -4.7 69 69 WNW 7 11 29.94 1014 10 16.0934 0 0
10:35 pm 22:35 Clear 31 -0.6 23 -5 72 72 W 7 11 29.94 1014 10 16.0934 0 0
10:55 pm 22:55 Clear 29 -1.5 22 -5.7 73 73 W 8 13 29.97 1015 10 16.0934 0 0
11:15 pm 23:15 Clear 32 -0.2 22 -5.5 68 68 WSW 9 15 29.97 1015 10 16.0934 0 0
11:35 pm 23:35 Clear 33 0.5 21 -6.1 62 62 W 13 20 29.97 1015 10 16.0934 0 0
11:55 pm 23:55 Clear 32 0.1 20 -6.7 61 61 W 13 20 29.97 1015 10 16.0934 0 0

Powered by AerisWeather